Terug naar catalogus

STARLINK-3363

ActiefCommunicatieVLEO
NORAD 51135·PAYLOAD·🇺🇸 United States

Gelanceerd Jan 19, 2022 vanaf Cape Canaveral Space Force Station

Loading…

Volgende Passages (komende 24 uur)

TLE

VersSource: CelesTrak SupGP

Epoch: Sep 14, 2026, 20:41 UTC

1 51135C 22005AH  26257.86229167 -.00029921  00000+0 -85614-3 0  2575
2 51135  53.1579 156.1005 0001248  90.1179 292.1775 15.35410393    15

Volg STARLINK-3363 in realtime met AllMySat

Download on the App Store